K5RNB Weather Reports


Display with metric or nautical units.
time (UTC)temp
F
wind
direction
speed
MPH
gust
MPH
rain 1hr
in
rain 24hr
in
rain mn
in
humidity
%
barometer
mb
20260504050456 65 197 6.0 9.0 0.00 0.00 0.00 63 1014.1
20260504045955 65 193 6.0 9.0 0.00 0.00 0.00 63 1014.1
20260504045458 65 193 5.0 8.0 0.00 0.00 0.00 63 1014.2
20260504044957 64 196 6.0 8.0 0.00 0.00 0.00 63 1014.2
20260504044456 65 198 5.0 7.0 0.00 0.00 0.00 62 1014.2
20260504043957 65 194 5.0 6.0 0.00 0.00 0.00 62 1014.3
20260504043456 65 194 3.0 5.0 0.00 0.00 0.00 61 1014.4
20260504042956 65 194 3.0 5.0 0.00 0.00 0.00 61 1014.4
20260504042456 65 194 5.0 5.0 0.00 0.00 0.00 60 1014.4
20260504041957 65 194 5.0 5.0 0.00 0.00 0.00 60 1014.4
20260504041456 66 194 3.0 5.0 0.00 0.00 0.00 59 1014.5
20260504040956 66 194 3.0 5.0 0.00 0.00 0.00 59 1014.5
20260504035956 66 194 3.0 6.0 0.00 0.00 0.00 58 1014.6
20260504035457 66 186 5.0 6.0 0.00 0.00 0.00 57 1014.5
20260504034956 66 180 3.0 6.0 0.00 0.00 0.00 57 1014.5
20260504034457 67 188 3.0 5.0 0.00 0.00 0.00 56 1014.4
20260504033957 67 188 3.0 5.0 0.00 0.00 0.00 56 1014.4
20260504032957 67 194 5.0 7.0 0.00 0.00 0.00 55 1014.4
20260504032456 68 194 5.0 8.0 0.00 0.00 0.00 54 1014.3
20260504031456 68 192 6.0 9.0 0.00 0.00 0.00 53 1014.3
20260504030457 68 193 4.0 7.0 0.00 0.00 0.00 52 1014.3
20260504025957 69 190 5.0 7.0 0.00 0.00 0.00 52 1014.3
20260504025457 69 189 6.0 8.0 0.00 0.00 0.00 52 1014.2
20260504024957 69 191 5.0 12.0 0.00 0.00 0.00 51 1014.2
20260504024456 69 187 6.0 12.0 0.00 0.00 0.00 51 1014.2
20260504023957 69 185 6.0 10.0 0.00 0.00 0.00 51 1014.1
20260504022958 69 185 6.0 9.0 0.00 0.00 0.00 51 1014.2
20260504022456 69 186 6.0 9.0 0.00 0.00 0.00 51 1014.2
20260504021957 69 186 6.0 10.0 0.00 0.00 0.00 51 1014.1
20260504021457 69 185 6.0 10.0 0.00 0.00 0.00 51 1014.1
20260504020957 69 178 5.0 10.0 0.00 0.00 0.00 52 1014.1
20260504020457 69 182 4.0 7.0 0.00 0.00 0.00 51 1014.0
20260504015957 70 189 3.0 5.0 0.00 0.00 0.00 51 1014.0
20260504014959 71 176 3.0 6.0 0.00 0.00 0.00 49 1013.9
20260504014458 71 182 4.0 7.0 0.00 0.00 0.00 49 1013.9
20260504012958 72 182 6.0 9.0 0.00 0.00 0.00 47 1013.7
20260504011957 72 181 5.0 7.0 0.00 0.00 0.00 47 1013.8
20260504011459 73 188 5.0 9.0 0.00 0.00 0.00 47 1013.7
20260504010957 73 184 5.0 9.0 0.00 0.00 0.00 46 1013.7
20260504010458 73 183 6.0 9.0 0.00 0.00 0.00 45 1013.7
20260504005958 74 184 6.0 10.0 0.00 0.00 0.00 45 1013.7
20260504004957 75 185 7.0 10.0 0.00 0.00 0.00 43 1013.5
20260504004457 75 187 7.0 13.0 0.00 0.00 0.00 43 1013.5
20260504003959 76 186 8.0 15.0 0.00 0.00 0.00 42 1013.6
20260504003458 76 195 10.0 16.0 0.00 0.00 0.00 41 1013.6
20260504003000 77 186 7.0 16.0 0.00 0.00 0.00 41 1013.6
20260504002457 77 187 9.0 16.0 0.00 0.00 0.00 41 1013.7
20260504001457 77 190 7.0 12.0 0.00 0.00 0.00 41 1013.7
20260503235958 78 194 6.0 13.0 0.00 0.00 0.00 41 1013.8
20260503234458 79 190 6.0 13.0 0.00 0.00 0.00 39 1013.9
20260503233958 79 206 9.0 17.0 0.00 0.00 0.00 38 1014.1
20260503233458 79 214 10.0 17.0 0.00 0.00 0.00 37 1014.0
20260503232958 79 215 8.0 16.0 0.00 0.00 0.00 36 1014.0
20260503232457 79 214 9.0 17.0 0.00 0.00 0.00 35 1014.0
20260503232000 80 213 13.0 17.0 0.00 0.00 0.00 35 1014.1
20260503231458 80 237 7.0 17.0 0.00 0.00 0.00 35 1014.1
20260503230958 80 217 9.0 17.0 0.00 0.00 0.00 34 1014.1
20260503230458 80 215 10.0 17.0 0.00 0.00 0.00 34 1014.2
20260503225459 80 205 8.0 20.0 0.00 0.00 0.00 35 1014.3
20260503224959 80 191 14.0 20.0 0.00 0.00 0.00 34 1014.2
20260503223958 80 219 12.0 21.0 0.00 0.00 0.00 33 1014.3
20260503222958 81 207 12.0 18.0 0.00 0.00 0.00 33 1014.4
20260503222458 81 208 9.0 18.0 0.00 0.00 0.00 35 1014.4
20260503222000 81 232 10.0 16.0 0.00 0.00 0.00 34 1014.6
20260503221459 81 228 9.0 16.0 0.00 0.00 0.00 35 1014.5
20260503215958 81 256 10.0 15.0 0.00 0.00 0.00 36 1014.7
20260503215459 81 221 10.0 16.0 0.00 0.00 0.00 36 1014.7
20260503214959 81 210 10.0 18.0 0.00 0.00 0.00 36 1014.8
20260503214500 81 191 13.0 18.0 0.00 0.00 0.00 34 1014.8
20260503213959 81 229 6.0 17.0 0.00 0.00 0.00 37 1014.8
20260503213458 81 239 9.0 17.0 0.00 0.00 0.00 34 1015.0
20260503212959 82 206 6.0 12.0 0.00 0.00 0.00 35 1015.1
20260503212458 82 238 8.0 13.0 0.00 0.00 0.00 35 1015.3
20260503211459 82 224 10.0 15.0 0.00 0.00 0.00 36 1015.3
20260503210459 82 235 6.0 15.0 0.00 0.00 0.00 39 1015.5
20260503205959 81 199 7.0 17.0 0.00 0.00 0.00 40 1015.7
20260503205459 80 205 11.0 17.0 0.00 0.00 0.00 37 1015.8
20260503204458 81 242 10.0 16.0 0.00 0.00 0.00 37 1016.0
20260503203500 81 226 6.0 14.0 0.00 0.00 0.00 35 1016.2
20260503202959 81 211 8.0 12.0 0.00 0.00 0.00 37 1016.2
20260503202459 81 211 8.0 15.0 0.00 0.00 0.00 36 1016.3
20260503201459 81 227 12.0 18.0 0.00 0.00 0.00 37 1016.6
20260503200959 81 205 9.0 20.0 0.00 0.00 0.00 37 1016.6
20260503200459 81 218 12.0 20.0 0.00 0.00 0.00 38 1016.7
20260503200000 81 237 6.0 15.0 0.00 0.00 0.00 41 1016.7
20260503195459 81 230 7.0 15.0 0.00 0.00 0.00 41 1016.8
20260503195000 80 220 7.0 18.0 0.00 0.00 0.00 39 1016.9
20260503194500 80 219 12.0 18.0 0.00 0.00 0.00 36 1017.0
20260503194000 80 209 7.0 17.0 0.00 0.00 0.00 41 1017.0
20260503192959 81 218 7.0 15.0 0.00 0.00 0.00 41 1017.2
20260503192459 80 217 8.0 15.0 0.00 0.00 0.00 39 1017.4
20260503192000 80 228 7.0 14.0 0.00 0.00 0.00 41 1017.4
20260503191459 80 239 7.0 13.0 0.00 0.00 0.00 39 1017.4
20260503191001 80 220 7.0 15.0 0.00 0.00 0.00 41 1017.5
20260503190459 80 228 9.0 17.0 0.00 0.00 0.00 40 1017.6
20260503190000 80 240 10.0 17.0 0.00 0.00 0.00 40 1017.7
20260503185500 79 228 8.0 17.0 0.00 0.00 0.00 41 1017.7
20260503184500 79 255 9.0 18.0 0.00 0.00 0.00 41 1017.9
20260503184000 79 241 10.0 18.0 0.00 0.00 0.00 43 1017.9
20260503183500 79 235 9.0 20.0 0.00 0.00 0.00 43 1018.0
20260503183000 79 224 10.0 20.0 0.00 0.00 0.00 42 1018.0
20260503181459 79 227 11.0 20.0 0.00 0.00 0.00 44 1018.4
20260503181000 79 223 8.0 18.0 0.00 0.00 0.00 45 1018.5
20260503180501 79 230 12.0 20.0 0.00 0.00 0.00 44 1018.5
20260503180000 79 215 6.0 20.0 0.00 0.00 0.00 48 1018.5
20260503175500 79 215 8.0 17.0 0.00 0.00 0.00 48 1018.7
20260503174500 78 231 10.0 17.0 0.00 0.00 0.00 46 1018.9
20260503174001 78 229 7.0 18.0 0.00 0.00 0.00 49 1018.9
20260503173002 78 229 9.0 17.0 0.00 0.00 0.00 46 1019.0
20260503172001 78 230 11.0 17.0 0.00 0.00 0.00 48 1019.2
20260503171501 78 236 10.0 16.0 0.00 0.00 0.00 48 1019.3
20260503170500 78 223 5.0 14.0 0.00 0.00 0.00 52 1019.4
20260503151001 71 230 12.0 17.0 0.00 0.00 0.00 58 1019.9
20260503131002 57 180 2.0 3.0 0.00 0.00 0.00 87 1019.8
20260503130503 56 258 2.0 3.0 0.00 0.00 0.00 88 1019.8
20260503110502 50 268 1.0 2.0 0.00 0.00 0.00 90 1018.9
20260503090503 49 268 0.0 0.0 0.00 0.00 0.00 89 1018.9
20260503081505 50 268 0.0 0.0 0.00 0.00 0.00 88 1019.1
20260503081004 50 268 0.0 0.0 0.00 0.00 0.00 88 1018.9
20260503080503 51 268 0.0 0.0 0.00 0.00 0.00 88 1018.9